Location: Academy at Carrie F Thomas
(32.8490°N, 97.2053°W)
Time: 10:07:47
(UTC+00:00)

Meteor 1-25 Rocket - Pass Details

Date: 11 July 2022
Orbit: 835 x 892 km, 81.2° (Epoch: 14 August)

Event Time Altitude Azimuth Distance (km) Brightness Sun altitude
Exits shadow 09:27:53 21° 279° (W) 1,889 5.7 -21.2°
Maximum altitude 09:28:25 21° 287° (WNW) 1,877 5.7 -21.1°
Drops below altitude 10° 09:32:45 10° 335° (NNW) 2,552 6.9 -20.5°
Sets 09:35:49 0° 351° (N) 3,488 7.9 -20.1°
